[[[{"header":{"parameterUnit":"kt","parameterCategory":2,"dx":1,"dy":1,"la1":30.253999710083008,"la2":30.299108505249023,"lo1":-89.0895004272461,"lo2":-89.04439544677734,"nx":28,"ny":28,"refTime":"2022-10-23T21:00:00:Z","depth":0,"parameterNumber":1,"parameterNumberName":"U-component_of_WINDS"},"data":[-8.6312,-8.6455,-8.6455,-8.6617,-8.6644,-8.6754,-8.6792,-8.6842,-8.6882,-8.7012,-8.7086,-8.7099,-8.7136,-8.7223,-8.7301,-8.7305,-8.7336,-8.7389,-8.7383,-8.7154,-8.7122,-8.7091,-8.7056,-8.7397,-8.7397,-8.7618,-8.762,-8.7622,-8.6147,-8.6175,-8.6262,-8.6344,-8.6417,-8.6368,-8.6429,-8.6492,-8.6591,-8.6641,-8.6713,-8.6827,-8.6916,-8.6934,-8.7019,-8.7083,-8.7062,-8.7106,-8.7098,-8.7104,-8.6861,-8.6824,-8.7122,-8.7122,-8.7122,-8.7121,-8.7121,-8.7121,-8.5844,-8.593,-8.5979,-8.6072,-8.6113,-8.6168,-8.6249,-8.6262,-8.6345,-8.6434,-8.6416,-8.6527,-8.6574,-8.6673,-8.6705,-8.6791,-8.6741,-8.6786,-8.6797,-8.6808,-8.682,-8.6498,-8.6805,-8.6804,-8.6803,-8.6803,-8.6802,0,-8.5621,-8.5615,-8.5696,-8.5779,-8.5846,-8.5909,-8.5965,-8.6016,-8.5997,-8.6066,-8.6165,-8.6221,-8.6332,-8.6423,-8.6501,-8.6524,-8.6473,-8.6469,-8.65,-8.6508,-8.6506,-8.6505,-8.6105,-8.6459,-8.6456,-8.6453,-8.6452,-8.6451,-8.5313,-8.5414,-8.5463,-8.5521,-8.5551,-8.5645,-8.5699,-8.5675,-8.5734,-8.5799,-8.5875,-8.5967,-8.6038,-8.6195,-8.6205,-8.6287,-8.6262,-8.6397,-8.6273,-8.6279,-8.6259,-8.6252,-8.6261,-8.6419,-8.6423,-8.6427,-8.6429,0,-8.5139,-8.5135,-8.529,-8.5328,-8.534,-8.5447,-8.5478,-8.5562,-8.5564,-8.5679,-8.5704,-8.5706,-8.5803,-8.5791,-8.5898,-8.5888,-8.606,-8.6036,-8.6043,-8.6036,-8.6153,-8.6141,-8.6541,-8.6591,-8.6242,-8.6245,-8.6248,0,-8.4871,-8.5004,-8.499,-8.508,-8.5227,-8.5198,-8.5343,-8.5359,-8.5398,-8.5488,-8.5431,-8.5517,-8.5487,-8.5571,-8.5557,-8.5696,-8.5717,-8.5716,-8.5709,-8.5718,-8.5718,-8.5743,-8.5725,-8.5696,-8.5693,-8.5692,-8.569,0,-8.4595,-8.4744,-8.489,-8.4923,-8.4974,-8.5044,-8.5069,-8.5111,-8.5164,-8.5231,-8.5264,-8.5344,-8.5387,-8.5449,-8.5429,-8.5346,-8.56,-8.548,-8.5597,-8.5598,-8.5649,-8.5645,-8.6009,-8.5687,-8.5687,-8.5686,-8.5686,0,-8.4376,-8.4446,-8.466,-8.4701,-8.474,-8.4837,-8.4913,-8.4993,-8.5042,-8.5039,-8.5091,-8.5048,-8.517,-8.5052,-8.5219,-8.5115,-8.516,-8.5171,-8.5179,-8.5184,-8.505,-8.5251,-8.5603,-8.5636,-8.5196,-8.5192,-8.5188,0,-8.406,-8.4274,-8.425,-8.4454,-8.455,-8.4477,-8.4584,-8.4628,-8.4633,-8.4714,-8.4718,-8.481,-8.472,-8.4746,-8.4831,-8.4837,-8.4973,-8.482,-8.4932,-8.4936,-8.4917,-8.5242,-8.5294,-8.5528,-8.5136,-8.5142,-8.5146,0,-8.3812,-8.3873,-8.3911,-8.3945,-8.4,-8.408,-8.4204,-8.4289,-8.4344,-8.4401,-8.4501,-8.4632,-8.4567,-8.4611,-8.4584,-8.4673,-8.4881,-8.4591,-8.4591,-8.464,-8.511,-8.5159,-8.5199,-8.4843,-8.4849,-8.4854,-8.5104,0,-8.3476,-8.3582,-8.3686,-8.3763,-8.3824,-8.395,-8.3935,-8.4,-8.3968,-8.3967,-8.4116,-8.4147,-8.4231,-8.4273,-8.4242,-8.445,-8.4412,-8.4342,-8.422,-8.4435,-8.4516,-8.455,-8.4101,-8.4097,-8.4094,-8.4091,0,0,-8.3172,-8.3322,-8.3289,-8.3407,-8.3455,-8.3374,-8.3511,-8.3548,-8.3624,-8.3658,-8.3592,-8.3779,-8.3806,-8.3987,-8.4053,-8.4088,-8.4122,-8.4047,-8.4334,-8.4361,-8.4386,-8.4474,-8.4509,-8.4086,-8.4085,-8.4084,-8.4083,0,-8.3044,-8.3077,-8.3213,-8.325,-8.3304,-8.3297,-8.333,-8.3367,-8.3372,-8.3518,-8.3446,-8.3533,-8.3683,-8.372,-8.3758,-8.4027,-8.3965,-8.4055,-8.4203,-8.4304,-8.4335,-8.4363,-8.4455,-8.449,-8.4075,-8.4076,-8.4076,0,-8.2794,-8.2822,-8.2886,-8.2992,-8.3025,-8.3126,-8.2997,-8.3109,-8.3182,-8.3083,-8.3228,-8.3242,-8.329,-8.3465,-8.3542,-8.3483,-8.3822,-8.3712,-8.3731,-8.3737,-8.3834,-8.3871,-8.3905,-8.3462,-8.346,-8.3458,0,0,-8.2685,-8.2783,-8.2803,-8.2963,-8.2989,-8.298,-8.3032,-8.3003,-8.3049,-8.3067,-8.3083,-8.3129,-8.3215,-8.3272,-8.3352,-8.3547,-8.3552,-8.3638,-8.3667,-8.369,-8.3709,-8.3812,-8.3849,-8.345,-8.345,-8.345,0,0,-8.2631,-8.2661,-8.2619,-8.2803,-8.2851,-8.2879,-8.2976,-8.2925,-8.2995,-8.2978,-8.2933,-8.2943,-8.3105,-8.3121,-8.3019,-8.3307,-8.3189,-8.3213,-8.329,-8.3326,-8.3355,-8.3345,-8.2887,0,0,0,0,0,-8.249,-8.2657,-8.262,-8.2648,-8.2779,-8.2901,-8.2917,-8.2884,-8.28,-8.2879,-8.2884,-8.2814,-8.3057,-8.2966,-8.2993,-8.3105,-8.335,-8.3368,-8.3384,-8.353,-8.3568,-8.36,0,0,0,0,0,0,-8.2501,-8.2536,-8.2615,-8.2651,-8.268,-8.2894,-8.2745,-8.2741,-8.2791,-8.2776,-8.2816,-8.2815,-8.2788,-8.2949,-8.2975,-8.3082,-8.2878,-8.3357,-8.3372,-8.3385,-8.3543,-8.3574,-8.3601,0,0,0,0,0,-8.2509,-8.2537,-8.2756,-8.2648,-8.2673,-8.267,-8.2739,-8.2734,-8.2772,-8.2778,-8.2776,-8.2742,-8.2792,-8.2811,-8.2964,-8.3071,-8.286,-8.287,-8.3367,-8.3378,-8.3389,-8.3558,0,0,0,0,0,0,-8.2516,-8.2533,-8.2761,-8.2767,-8.2581,-8.2657,-8.2667,-8.2728,-8.277,-8.277,-8.2702,-8.2689,-8.2797,-8.2811,-8.2826,-8.3069,-8.2845,-8.2855,-8.2861,-8.3376,-8.3385,-8.3393,0,0,0,0,0,0,-8.2518,-8.2539,-8.2764,-8.2682,-8.2679,-8.2645,-8.2655,-8.2779,-8.2771,-8.269,-8.2681,-8.2696,-8.2774,-8.2812,-8.2823,-8.3018,-8.2834,-8.2844,-8.285,-8.2854,-8.3383,-8.3391,0,0,0,0,0,0,-8.2526,-8.2544,-8.268,-8.2678,-8.2674,-8.2743,-8.2754,-8.2889,-8.2704,-8.269,-8.2686,-8.2678,-8.2777,-8.2787,-8.2822,-8.3013,-8.3017,-8.2834,-8.2841,-8.2845,-8.2848,0,0,0,0,0,0,0,-8.2533,-8.2418,-8.2723,-8.2674,-8.2671,-8.2826,-8.2828,-8.283,-8.2702,-8.2695,-8.2688,-8.2681,-8.278,-8.2791,-8.2801,-8.3008,0,0,-8.2833,-8.2838,0,0,0,0,0,0,0,0,-8.241,-8.2416,-8.2723,-8.2725,-8.2726,-8.2826,-8.2828,-8.2829,-8.2701,-8.2695,-8.2689,-8.2684,-8.2783,-8.2792,-8.28,0,0,0,0,0,0,0,0,0,0,0,0,0,0,0,-8.2723,-8.2725,0,-8.2827,-8.2828,-8.2829,-8.27,-8.2695,-8.269,-8.2686,-8.2786,-8.2792,-8.2799,0,0,0,0,0,0,0,0,0,0,0,0,0,0,0,0,0,0,0,0,0,0,0,0,0,0,0,0,0,0,0,0,0,0,0,0,0,0,0,0,0,0,0,0,0,0,0,0,0,0,0,0,0,0,0,0,0,0,0,0,0,0,0,0,0,0,0,0,0]}],[{"header":{"parameterUnit":"kt","parameterCategory":2,"dx":1,"dy":1,"la1":30.253999710083008,"la2":30.299108505249023,"lo1":-89.0895004272461,"lo2":-89.04439544677734,"nx":28,"ny":28,"refTime":"2022-10-23T21:00:00:Z","depth":0,"parameterNumber":2,"parameterNumberName":"V-component_of_WINDS"},"data":[6.3551,6.3621,6.3627,6.3708,6.3726,6.3781,6.3802,6.3829,6.3851,6.3915,6.3953,6.3962,6.3983,6.4026,6.4064,6.4067,6.4082,6.4105,6.4103,6.4003,6.3989,6.3975,6.396,6.4108,6.4109,6.4206,6.4207,6.4208,6.3478,6.3497,6.3542,6.3588,6.3626,6.3608,6.3642,6.3674,6.3723,6.375,6.3787,6.3843,6.3886,6.3899,6.3941,6.3971,6.3963,6.3982,6.3978,6.3981,6.3875,6.3858,6.3987,6.3987,6.3987,6.3987,6.3987,6.3987,6.3346,6.3388,6.3419,6.3467,6.3491,6.3522,6.3561,6.3573,6.3615,6.3661,6.3656,6.371,6.3736,6.3786,6.3803,6.3843,6.3822,6.3843,6.3847,6.3852,6.3857,6.3715,6.385,6.385,6.385,6.3849,6.3849,0,6.325,6.3251,6.3294,6.3339,6.3374,6.3408,6.3439,6.3464,6.3464,6.3498,6.3547,6.3575,6.363,6.3674,6.3713,6.3726,6.3706,6.3705,6.3718,6.3721,6.3719,6.3719,6.3544,6.37,6.3698,6.3698,6.3697,6.3696,6.3115,6.3164,6.3198,6.3228,6.3246,6.3293,6.3321,6.3318,6.3348,6.3384,6.3419,6.3465,6.35,6.3576,6.3584,6.3624,6.3614,6.3673,6.3619,6.3621,6.3613,6.3609,6.3613,6.3683,6.3685,6.3686,6.3687,0,6.3039,6.3046,6.3122,6.315,6.3158,6.3208,6.323,6.327,6.3276,6.3332,6.3344,6.3352,6.3398,6.3397,6.3449,6.3447,6.3526,6.3516,6.3517,6.3514,6.3566,6.3561,6.3737,6.376,6.3607,6.3609,6.361,0,6.2926,6.2989,6.2995,6.3039,6.3109,6.3104,6.3172,6.3183,6.3206,6.325,6.3229,6.327,6.3263,6.3303,6.3299,6.3364,6.3373,6.3375,6.3373,6.3376,6.3375,6.3388,6.338,6.3368,6.3367,6.3366,6.3365,0,6.2805,6.2882,6.2953,6.2971,6.3006,6.3039,6.3054,6.3079,6.3106,6.314,6.3157,6.3197,6.3218,6.3249,6.3244,6.3207,6.3323,6.3271,6.3323,6.3324,6.3347,6.3345,6.3504,6.3364,6.3364,6.3364,6.3363,0,6.2713,6.2752,6.2854,6.2882,6.2902,6.2948,6.2988,6.3028,6.3055,6.3057,6.3083,6.3068,6.3125,6.3074,6.3152,6.3105,6.3127,6.3134,6.3137,6.314,6.3082,6.317,6.3324,6.3338,6.3146,6.3144,6.3143,0,6.2572,6.2677,6.2674,6.2771,6.2819,6.2793,6.2844,6.2869,6.2875,6.2915,6.292,6.2965,6.2927,6.294,6.2979,6.2986,6.3046,6.2978,6.3031,6.3033,6.3024,6.3165,6.3187,6.3291,6.3119,6.3122,6.3124,0,6.2463,6.2505,6.2523,6.2543,6.2577,6.2616,6.2675,6.2719,6.2746,6.2776,6.2824,6.2887,6.286,6.2882,6.2873,6.2914,6.3005,6.2879,6.2879,6.29,6.3108,6.3129,6.3146,6.299,6.2992,6.2995,6.3105,0,6.2321,6.2375,6.2423,6.2467,6.2498,6.2559,6.2559,6.2591,6.258,6.2585,6.2654,6.2673,6.2715,6.2734,6.2723,6.2817,6.28,6.2771,6.2719,6.2812,6.2848,6.2863,6.2665,6.2664,6.2662,6.2661,0,0,6.2183,6.226,6.2253,6.231,6.2336,6.2306,6.2371,6.2391,6.2433,6.245,6.2422,6.2513,6.2528,6.2612,6.2642,6.2659,6.2675,6.2641,6.2768,6.278,6.2791,6.283,6.2846,6.2659,6.2659,6.2658,6.2658,0,6.2132,6.2153,6.2218,6.224,6.2272,6.2274,6.229,6.2315,6.232,6.2389,6.2361,6.2402,6.2475,6.2494,6.2514,6.2633,6.2607,6.2645,6.271,6.2755,6.2769,6.2781,6.2822,6.2837,6.2654,6.2655,6.2655,0,6.2023,6.2043,6.2075,6.2132,6.2152,6.2201,6.2148,6.2203,6.2239,6.22,6.2268,6.2277,6.2303,6.2384,6.2419,6.2394,6.2546,6.2498,6.2506,6.2509,6.2553,6.2569,6.2584,6.239,6.2389,6.2388,0,0,6.1978,6.2027,6.2046,6.2121,6.2136,6.2139,6.2165,6.2156,6.2182,6.2192,6.2204,6.2228,6.227,6.2297,6.2336,6.2424,6.2428,6.2465,6.2478,6.2488,6.2496,6.2543,6.2559,6.2385,6.2385,6.2385,0,0,6.1955,6.1981,6.1966,6.2053,6.208,6.2101,6.2146,6.2127,6.2162,6.2155,6.214,6.2146,6.2221,6.223,6.2185,6.2317,6.2266,6.2277,6.2308,6.2323,6.2335,6.233,6.213,0,0,0,0,0,6.1901,6.1978,6.1964,6.1979,6.2049,6.211,6.2118,6.2109,6.2074,6.211,6.2116,6.2088,6.2203,6.2163,6.2176,6.2226,6.2341,6.2349,6.2356,6.2417,6.2433,6.2447,0,0,0,0,0,0,6.1907,6.1925,6.1962,6.1987,6.2003,6.2107,6.2045,6.2044,6.207,6.2064,6.2088,6.2088,6.208,6.2155,6.2167,6.2215,6.2126,6.2344,6.2351,6.2357,6.2422,6.2436,6.2447,0,0,0,0,0,6.1912,6.1926,6.2042,6.1986,6.1999,6.2006,6.2042,6.2041,6.206,6.207,6.207,6.2051,6.2082,6.2091,6.2162,6.2209,6.2118,6.2122,6.2348,6.2353,6.2358,6.2429,0,0,0,0,0,0,6.1915,6.1925,6.2044,6.2048,6.1956,6.2,6.2007,6.2038,6.2064,6.2065,6.2032,6.2027,6.2084,6.2091,6.2099,6.2208,6.2111,6.2115,6.2118,6.2352,6.2356,6.236,0,0,0,0,0,0,6.1917,6.1928,6.2046,6.2009,6.2009,6.1994,6.2,6.2059,6.2065,6.2025,6.2021,6.203,6.2072,6.2091,6.2097,6.2188,6.2105,6.211,6.2113,6.2115,6.2356,6.2359,0,0,0,0,0,0,6.1921,6.1931,6.2008,6.2008,6.2007,6.2048,6.2045,6.2117,6.2036,6.2024,6.2028,6.2025,6.2073,6.2078,6.2096,6.2185,6.2187,6.2105,6.2108,6.2111,6.2112,0,0,0,0,0,0,0,6.1925,6.1863,6.2023,6.2007,6.2006,6.2082,6.2083,6.2084,6.2035,6.2032,6.2029,6.2026,6.208,6.2085,6.209,6.2182,0,0,6.2105,6.2107,0,0,0,0,0,0,0,0,6.1859,6.1862,6.2023,6.2023,6.2024,6.2083,6.2083,6.2084,6.2035,6.2032,6.203,6.2027,6.2081,6.2085,6.2089,0,0,0,0,0,0,0,0,0,0,0,0,0,0,0,6.2023,6.2023,0,6.2083,6.2083,6.2084,6.2034,6.2032,6.203,6.2028,6.2082,6.2085,6.2089,0,0,0,0,0,0,0,0,0,0,0,0,0,0,0,0,0,0,0,0,0,0,0,0,0,0,0,0,0,0,0,0,0,0,0,0,0,0,0,0,0,0,0,0,0,0,0,0,0,0,0,0,0,0,0,0,0,0,0,0,0,0,0,0,0,0,0,0,0]}]]]